Flag for U.S.A. Weather past 2 weeks in Billings, Montana, U.S.A.

Now
37 °F

Passing clouds.


Feels Like: 34 °F
Forecast: 37 / 68 °F
Wind: 3 mph from East

Location: Billings Logan International Airport


UV Index: 3 (Moderate)

Visibility: 10 mi


Pressure: 29.93 "Hg

Humidity: 42%

Dew point: 16 °F

Location of BillingsLocation

Historic Weather in Billings

°F

Billings temperature yesterday

Maximum temperature yesterday: 62 °F (at 4:53 PM)
Minimum temperature yesterday: 42 °F (at 9:53 PM)
Average temperature yesterday: 50 °F

Past Weeks' High & Low Weather Summary

 TemperatureHumidityPressure
High73 °F (Apr 8, 3:53 PM)88% (Apr 9, 5:53 AM)30.41 "Hg (Apr 9, 5:53 AM)
Low25 °F (Apr 14, 5:53 AM)14% (Apr 10, 3:53 PM)29.62 "Hg (Apr 18, 9:53 AM)
Average46 °F50%29.94 "Hg
* Reported Apr 4 2:53 AM — Apr 19 2:53 AM, Billings, Weather by CustomWeather, © 2014

Note: Actual official high and low records may vary slightly from our data, if they occured in-between our weather recording intervals... More about our weather records

Advertising

Historic Weather Conditions — Data for Previous 24 hours

 ConditionsComfort  
Time TempWeatherWind HumidityBarometerVisibility
2:53 AM
Apr 19
40 °FPassing clouds.5 mph36%29.90 "Hg10 mi
1:53 AM41 °FPassing clouds.7 mph32%29.89 "Hg10 mi
12:53 AM43 °FPassing clouds.9 mph29%29.88 "Hg10 mi
11:53 PM
Apr 18
43 °FClear.9 mph28%29.88 "Hg10 mi
10:53 PM45 °FPassing clouds.12 mph26%29.88 "Hg10 mi
9:53 PM42 °FPassing clouds.12 mph38%29.87 "Hg10 mi
8:53 PM47 °FPartly sunny.21 mph33%29.85 "Hg10 mi
7:53 PM49 °FPartly sunny.21 mph36%29.81 "Hg10 mi
6:53 PM48 °FBroken clouds.22 mph52%29.78 "Hg10 mi
5:53 PM50 °FScattered clouds.26 mph66%29.72 "Hg10 mi
4:53 PM62 °FThunderstorms. Scattered clouds.10 mph41%29.64 "Hg10 mi
3:53 PM60 °FScattered clouds.3 mph42%29.65 "Hg10 mi
2:53 PM57 °FPartly sunny.12 mph46%29.69 "Hg10 mi
1:53 PM55 °FLight rain. Overcast.6 mph55%29.69 "Hg10 mi
12:53 PM53 °FLight rain. Mostly cloudy.17 mph56%29.71 "Hg10 mi
11:53 AM56 °FMore clouds than sun.28 mph47%29.69 "Hg10 mi
10:53 AM57 °FOvercast.24 mph46%29.65 "Hg10 mi
9:53 AM59 °FBroken clouds.17 mph46%29.62 "Hg10 mi
8:53 AM51 °FPartly sunny.3 mph54%29.64 "Hg10 mi
7:53 AM44 °FPartly sunny.7 mph65%29.62 "Hg10 mi
6:53 AM47 °FPassing clouds.10 mph54%29.63 "Hg10 mi
5:53 AM45 °FMostly cloudy.6 mph60%29.62 "Hg10 mi
4:53 AM43 °FPartly cloudy.3 mph62%29.63 "Hg10 mi
Weather by CustomWeather, © 2014

See weather overview